Time,TemperatureF,DewpointF,PressureIn,WindDirection,WindDirectionDegrees,WindSpeedMPH,WindSpeedGustMPH,Humidity,HourlyPrecipIn,Conditions,Clouds,dailyrainin,SolarRadiationWatts/m^2,SoftwareType,DateUTC
2013-08-05 00:10:00,65.4,41.0,31.37,NNE,18,0.0,4.0,41,0.00,,,0.00,0,weatherlink.com 1.10,2013-08-05 06:10:00,
2013-08-05 00:25:00,65.9,40.0,31.37,NE,40,0.0,2.0,39,0.00,,,0.00,0,weatherlink.com 1.10,2013-08-05 06:25:00,
2013-08-05 00:40:00,66.5,40.0,31.37,NE,36,0.0,1.0,38,0.00,,,0.00,0,weatherlink.com 1.10,2013-08-05 06:40:00,
2013-08-05 00:55:00,66.5,40.0,31.36,NE,42,0.0,4.0,38,0.00,,,0.00,0,weatherlink.com 1.10,2013-08-05 06:55:00,
2013-08-05 01:10:00,65.7,41.0,31.36,NNW,348,0.0,5.0,40,0.00,,,0.00,0,weatherlink.com 1.10,2013-08-05 07:10:00,
2013-08-05 01:25:00,64.0,40.0,31.37,NW,321,0.0,4.0,42,0.00,,,0.00,0,weatherlink.com 1.10,2013-08-05 07:25:00,
2013-08-05 01:40:00,64.4,41.0,31.37,NW,319,2.0,3.0,42,0.00,,,0.00,0,weatherlink.com 1.10,2013-08-05 07:40:00,
2013-08-05 01:55:00,62.4,41.0,31.37,ENE,76,0.0,3.0,45,0.00,,,0.00,0,weatherlink.com 1.10,2013-08-05 07:55:00,
2013-08-05 02:10:00,61.5,40.0,31.37,ENE,76,0.0,1.0,46,0.00,,,0.00,0,weatherlink.com 1.10,2013-08-05 08:10:00,
2013-08-05 02:25:00,62.3,41.0,31.37,ENE,76,0.0,0.0,45,0.00,,,0.00,0,weatherlink.com 1.10,2013-08-05 08:25:00,
2013-08-05 02:56:00,61.4,40.0,31.37,ESE,114,0.0,0.0,46,0.00,,,0.00,0,weatherlink.com 1.10,2013-08-05 08:56:00,
2013-08-05 03:41:00,58.6,40.0,31.37,South,184,2.0,7.0,50,0.00,,,0.00,0,weatherlink.com 1.10,2013-08-05 09:41:00,
2013-08-05 04:56:00,57.8,39.0,31.37,ENE,75,2.0,2.0,50,0.00,,,0.00,0,weatherlink.com 1.10,2013-08-05 10:56:00,
2013-08-05 05:11:00,59.0,39.0,31.37,South,186,0.0,4.0,48,0.00,,,0.00,0,weatherlink.com 1.10,2013-08-05 11:11:00,
2013-08-05 05:25:00,58.9,39.0,31.37,SSE,159,3.0,5.0,48,0.00,,,0.00,0,weatherlink.com 1.10,2013-08-05 11:25:00,
2013-08-05 05:40:00,60.3,39.0,31.36,SSE,166,5.0,8.0,46,0.00,,,0.00,0,weatherlink.com 1.10,2013-08-05 11:40:00,
2013-08-05 05:56:00,59.1,39.0,31.36,SSE,163,1.0,7.0,48,0.00,,,0.00,0,weatherlink.com 1.10,2013-08-05 11:56:00,
2013-08-05 06:11:00,57.4,39.0,31.37,SSE,163,0.0,1.0,51,0.00,,,0.00,0,weatherlink.com 1.10,2013-08-05 12:11:00,
2013-08-05 06:26:00,56.7,39.0,31.37,SSE,163,0.0,2.0,52,0.00,,,0.00,11,weatherlink.com 1.10,2013-08-05 12:26:00,
2013-08-05 07:56:00,59.4,41.0,31.38,SSE,163,1.0,3.0,51,0.00,,,0.00,88,weatherlink.com 1.10,2013-08-05 13:56:00,
2013-08-05 08:11:00,59.4,42.0,31.37,SSE,168,0.0,0.0,53,0.00,,,0.00,120,weatherlink.com 1.10,2013-08-05 14:11:00,
2013-08-05 08:41:00,59.8,42.0,31.38,SSE,168,0.0,5.0,52,0.00,,,0.00,81,weatherlink.com 1.10,2013-08-05 14:41:00,
2013-08-05 09:11:00,60.0,41.0,31.39,SSE,168,0.0,1.0,50,0.00,,,0.00,139,weatherlink.com 1.10,2013-08-05 15:11:00,
2013-08-05 09:26:00,60.0,42.0,31.40,SSE,168,0.0,3.0,52,0.00,,,0.00,69,weatherlink.com 1.10,2013-08-05 15:26:00,
2013-08-05 09:56:00,62.7,41.0,31.37,South,187,3.0,7.0,46,0.00,,,0.00,213,weatherlink.com 1.10,2013-08-05 15:56:00,
2013-08-05 10:12:00,61.6,43.0,31.38,West,264,0.0,7.0,51,0.00,,,0.00,178,weatherlink.com 1.10,2013-08-05 16:12:00,
2013-08-05 10:27:00,61.4,43.0,31.38,South,178,5.0,9.0,51,0.00,,,0.00,302,weatherlink.com 1.10,2013-08-05 16:27:00,
2013-08-05 10:42:00,63.2,41.0,31.37,SW,232,4.0,8.0,45,0.00,,,0.00,385,weatherlink.com 1.10,2013-08-05 16:42:00,
2013-08-05 10:57:00,62.0,42.0,31.36,SE,144,4.0,6.0,49,0.00,,,0.00,615,weatherlink.com 1.10,2013-08-05 16:57:00,
2013-08-05 11:11:00,63.8,44.0,31.36,NNW,344,0.0,6.0,49,0.00,,,0.00,752,weatherlink.com 1.10,2013-08-05 17:11:00,
2013-08-05 11:26:00,65.8,45.0,31.34,NW,313,2.0,5.0,47,0.00,,,0.00,617,weatherlink.com 1.10,2013-08-05 17:26:00,
2013-08-05 11:41:00,66.5,45.0,31.34,NW,313,0.0,2.0,46,0.00,,,0.00,563,weatherlink.com 1.10,2013-08-05 17:41:00,
2013-08-05 11:57:00,68.0,45.0,31.34,SW,228,7.0,8.0,43,0.00,,,0.00,708,weatherlink.com 1.10,2013-08-05 17:57:00,
2013-08-05 12:12:00,68.9,43.0,31.34,SSW,192,7.0,10.0,40,0.00,,,0.00,722,weatherlink.com 1.10,2013-08-05 18:12:00,
2013-08-05 12:27:00,69.3,43.0,31.33,SW,231,2.0,10.0,39,0.00,,,0.00,842,weatherlink.com 1.10,2013-08-05 18:27:00,
2013-08-05 12:57:00,71.1,43.0,31.33,West,275,1.0,6.0,36,0.00,,,0.00,169,weatherlink.com 1.10,2013-08-05 18:57:00,
2013-08-05 13:12:00,71.1,43.0,31.31,NNW,329,0.0,4.0,37,0.00,,,0.00,819,weatherlink.com 1.10,2013-08-05 19:12:00,
2013-08-05 13:27:00,73.8,42.0,31.31,North,11,2.0,7.0,32,0.00,,,0.00,870,weatherlink.com 1.10,2013-08-05 19:27:00,
2013-08-05 13:42:00,75.2,42.0,31.30,North,360,0.0,9.0,31,0.00,,,0.00,861,weatherlink.com 1.10,2013-08-05 19:42:00,
2013-08-05 14:12:00,77.6,44.0,31.29,NNW,340,5.0,6.0,30,0.00,,,0.00,872,weatherlink.com 1.10,2013-08-05 20:12:00,
2013-08-05 14:27:00,77.8,44.0,31.28,NW,321,3.0,9.0,30,0.00,,,0.00,896,weatherlink.com 1.10,2013-08-05 20:27:00,
2013-08-05 14:42:00,78.9,44.0,31.27,NW,315,3.0,9.0,29,0.00,,,0.00,905,weatherlink.com 1.10,2013-08-05 20:42:00,
2013-08-05 14:57:00,78.9,45.0,31.26,WNW,296,6.0,10.0,30,0.00,,,0.00,858,weatherlink.com 1.10,2013-08-05 20:57:00,
2013-08-05 15:12:00,79.2,42.0,31.25,NW,305,6.0,11.0,27,0.00,,,0.00,882,weatherlink.com 1.10,2013-08-05 21:12:00,
2013-08-05 15:27:00,79.4,42.0,31.25,NW,320,8.0,12.0,26,0.00,,,0.00,276,weatherlink.com 1.10,2013-08-05 21:27:00,
2013-08-05 15:42:00,78.2,42.0,31.24,NNW,341,9.0,14.0,27,0.00,,,0.00,221,weatherlink.com 1.10,2013-08-05 21:42:00,
2013-08-05 15:57:00,78.5,42.0,31.24,NNW,335,3.0,6.0,27,0.00,,,0.00,840,weatherlink.com 1.10,2013-08-05 21:57:00,
2013-08-05 16:13:00,77.7,40.0,31.23,WSW,238,1.0,6.0,26,0.00,,,0.00,791,weatherlink.com 1.10,2013-08-05 22:13:00,
2013-08-05 16:28:00,79.1,39.0,31.23,SW,234,4.0,11.0,24,0.00,,,0.00,745,weatherlink.com 1.10,2013-08-05 22:28:00,
2013-08-05 16:43:00,80.9,35.0,31.22,NW,317,14.0,20.0,19,0.00,,,0.00,163,weatherlink.com 1.10,2013-08-05 22:43:00,
2013-08-05 17:13:00,81.7,38.0,31.22,WNW,288,10.0,17.0,21,0.00,,,0.00,654,weatherlink.com 1.10,2013-08-05 23:13:00,
2013-08-05 17:28:00,81.7,38.0,31.22,NW,312,14.0,20.0,21,0.00,,,0.00,635,weatherlink.com 1.10,2013-08-05 23:28:00,
2013-08-05 17:43:00,81.1,38.0,31.22,North,350,9.0,22.0,21,0.00,,,0.00,598,weatherlink.com 1.10,2013-08-05 23:43:00,
2013-08-05 17:58:00,81.0,38.0,31.21,NW,319,8.0,18.0,21,0.00,,,0.00,531,weatherlink.com 1.10,2013-08-05 23:58:00,
2013-08-05 18:13:00,81.1,38.0,31.21,WNW,300,10.0,19.0,21,0.00,,,0.00,480,weatherlink.com 1.10,2013-08-06 00:13:00,
2013-08-05 18:28:00,80.0,38.0,31.22,NNW,328,11.0,16.0,22,0.00,,,0.00,438,weatherlink.com 1.10,2013-08-06 00:28:00,
2013-08-05 18:43:00,79.8,40.0,31.22,NW,315,9.0,17.0,24,0.00,,,0.00,403,weatherlink.com 1.10,2013-08-06 00:43:00,
2013-08-05 18:58:00,78.2,41.0,31.22,WNW,297,4.0,15.0,26,0.00,,,0.00,63,weatherlink.com 1.10,2013-08-06 00:58:00,
2013-08-05 19:13:00,76.1,40.0,31.22,NNW,329,11.0,12.0,27,0.00,,,0.00,77,weatherlink.com 1.10,2013-08-06 01:13:00,
2013-08-05 19:28:00,76.4,41.0,31.22,NW,306,6.0,14.0,28,0.00,,,0.00,74,weatherlink.com 1.10,2013-08-06 01:28:00,
2013-08-05 19:58:00,76.5,40.0,31.23,NW,306,7.0,16.0,27,0.00,,,0.00,151,weatherlink.com 1.10,2013-08-06 01:58:00,
2013-08-05 20:13:00,75.7,40.0,31.23,WNW,297,7.0,13.0,28,0.00,,,0.00,107,weatherlink.com 1.10,2013-08-06 02:13:00,
2013-08-05 20:28:00,74.9,40.0,31.24,WNW,282,6.0,14.0,28,0.00,,,0.00,60,weatherlink.com 1.10,2013-08-06 02:28:00,
2013-08-05 20:43:00,73.9,39.0,31.24,West,266,4.0,16.0,28,0.00,,,0.00,28,weatherlink.com 1.10,2013-08-06 02:43:00,
2013-08-05 20:58:00,72.9,38.0,31.25,WNW,290,3.0,11.0,28,0.00,,,0.00,7,weatherlink.com 1.10,2013-08-06 02:58:00,
2013-08-05 21:43:00,71.0,40.0,31.26,West,261,0.0,2.0,32,0.00,,,0.00,0,weatherlink.com 1.10,2013-08-06 03:43:00,
2013-08-05 21:58:00,71.0,40.0,31.27,WSW,241,0.0,1.0,33,0.00,,,0.00,0,weatherlink.com 1.10,2013-08-06 03:58:00,
2013-08-05 22:13:00,70.2,40.0,31.27,North,5,0.0,11.0,34,0.00,,,0.00,0,weatherlink.com 1.10,2013-08-06 04:13:00,
2013-08-05 22:28:00,69.0,43.0,31.28,North,360,4.0,5.0,39,0.00,,,0.00,0,weatherlink.com 1.10,2013-08-06 04:28:00,
2013-08-05 22:43:00,69.3,44.0,31.29,NNE,33,2.0,10.0,40,0.00,,,0.00,0,weatherlink.com 1.10,2013-08-06 04:43:00,
2013-08-05 22:58:00,69.2,44.0,31.29,NNE,22,3.0,7.0,40,0.00,,,0.00,0,weatherlink.com 1.10,2013-08-06 04:58:00,
2013-08-05 23:13:00,68.9,44.0,31.29,NNE,12,0.0,9.0,41,0.00,,,0.00,0,weatherlink.com 1.10,2013-08-06 05:13:00,
2013-08-05 23:28:00,68.4,44.0,31.29,North,9,4.0,6.0,41,0.00,,,0.00,0,weatherlink.com 1.10,2013-08-06 05:28:00,
2013-08-05 23:43:00,68.1,44.0,31.29,NNE,33,6.0,7.0,42,0.00,,,0.00,0,weatherlink.com 1.10,2013-08-06 05:43:00,
2013-08-05 23:58:00,67.3,44.0,31.30,North,360,0.0,4.0,43,0.00,,,0.00,0,weatherlink.com 1.10,2013-08-06 05:58:00,